Regional Weather Roundup
Issued by NWS Wilmington, NC

Home | Current Version | Previous Version | Text Only | Print | Product List | Glossary On
Versions: 1 2 3 4 5 6 7 8 9 10 11 12 13 14 15 16 17 18 19 20 21 22 23 24 25 26 27 28 29 30 31 32 33 34 35 36 37 38 39 40 41 42 43 44 45 46 47 48 49 50
000
ASUS42 KILM 280010
RWRILM
RWRILM
REGIONAL HOURLY WEATHER ROUNDUP
NATIONAL WEATHER SERVICE WILMINGTON NC
700 PM EST THU NOV 27 2014

NOTE: "FAIR" INDICATES FEW OR NO CLOUDS BELOW 12,000 FEET WITH NO
SIGNIFICANT WEATHER AND/OR OBSTRUCTIONS TO VISIBILITY.

...............WFO WILMINGTON COUNTY WARNING AREA...............

......COASTAL NC AND SC COUNTIES......

CITY           SKY/WX    TMP DP  RH WIND       PRES   REMARKS
WILMINGTON     CLEAR     44  38  79 NW7       30.17R
SOUTHPORT      CLEAR     45  38  79 NW5       30.18R
N MYRTLE BEACH CLEAR     45  37  73 NW5       30.19R
MYRTLE BEACH   CLEAR     46  36  66 NW6       30.19R

......INLAND NC AND SC COUNTIES.......

CITY           SKY/WX    TMP DP  RH WIND       PRES   REMARKS
LUMBERTON      MOCLDY    41  38  89 NW5       30.19R
ELIZABETHTOWN  PTCLDY    41  38  87 CALM      30.18R
WHITEVILLE     CLEAR     42  39  88 CALM      30.19R
FLORENCE       CLOUDY    42  37  82 NW3       30.20R
DARLINGTON     MOCLDY    39  36  87 NW5       30.21R

....................REST OF NORTH CAROLINA......................

.........EASTERN NC.........

CITY           SKY/WX    TMP DP  RH WIND       PRES   REMARKS
CAPE HATTERAS  CLOUDY    46  41  82 NW14G23   30.08R
JACKSONVILLE   CLEAR     43  36  75 CALM      30.16R
MOREHEAD CITY  PTCLDY    45  39  79 N12       30.13R
KENANSVILLE    PTCLDY    38  37  94 CALM      30.18R
NEW BERN       CLEAR     44  38  79 NW6       30.15R
ELIZABETH CITY MOCLDY    45  39  79 NW3       30.12R

.........CENTRAL NC.........

CITY           SKY/WX    TMP DP  RH WIND       PRES   REMARKS
RALEIGH DURHAM PTCLDY    42  30  62 VRB3      30.18R
ROCKY MOUNT    CLEAR     42  35  76 NW8       30.16R
ROANOKE RAPIDS NOT AVBL
FAYETTEVILLE   CLOUDY    45  36  70 W6        30.18R
HOFFMAN        CLEAR     42  31  65 NW5       30.21R

.........WESTERN NC.........

CITY           SKY/WX    TMP DP  RH WIND       PRES   REMARKS
CHARLOTTE      MOCLDY    42  23  46 NW12      30.24R
GREENSBORO     PTCLDY    38  24  57 NW12      30.19R WCI  30
HICKORY        NOT AVBL
BOONE          NOT AVBL
ASHEVILLE      NOT AVBL

.....................REST OF SOUTH CAROLINA.....................

.........EASTERN SC.........

CITY           SKY/WX    TMP DP  RH WIND       PRES   REMARKS
CHARLESTON     CLEAR     47  32  56 W5        30.22R
BEAUFORT MCAS  CLEAR     44  35  70 W6        30.24R
HILTON HEAD    CLEAR     48  34  57 CALM      30.26R

.........CENTRAL SC.........

CITY           SKY/WX    TMP DP  RH WIND       PRES   REMARKS
COLUMBIA       PTCLDY    49  30  48 W13       30.23R
ORANGEBURG     CLEAR     47  30  51 W6        30.23R
SUMTER SHAW    CLEAR     46  29  49 NW9       30.20R

.........WESTERN SC.........

CITY           SKY/WX    TMP DP  RH WIND       PRES   REMARKS
GREENVILLE     NOT AVBL
ROCK HILL      CLEAR     41  25  53 NW8       30.23R
ANDERSON       CLEAR     42  25  50 NW12      30.26R
CLEMSON        NOT AVBL
GREENWOOD      CLEAR     43  25  49 NW6       30.27R


...................COASTAL AND OFFSHORE REPORTS..................

................LOCAL PIERS AND NC RESERVE................


STATION/POSITION TIME  SKY/WX   TEMP    WIND        PRES    VSBY
                                AIR SEA DIR/SP/G
                 (UTC)          (F)     (DEG/KT/KT) (MB)    (MI)
JOHNY MRCER PIER 0000            46 60  310/ 10/ 14 1020.4R
NC RESRV MASNBRO 2300            47     220/  2     1020.0S
OCEAN CREST PIER 0000            46 57  300/  7/  9 1020.6R
SPRINGMAID  PIER 0000            46 56  330/  4/  5 1022.3R


................COASTAL AND OFFSHORE BUOYS................


STATION/POSITION TIME  SKY/WX   TEMP    WIND        PRES    VSBY
                                AIR SEA DIR/SP/G
                 (UTC)          (F)     (DEG/KT/KT) (MB)    (MI)
DIMNDSHOAL 41025 0000            51     320/ 21/ 27 1017.1R
WVE H/P(F/S)=  6/ 5 WND WVE H/P(F/S)=  7/ 5 SWL H/P/D(F/S/D)=  2/140/ 9

CAPE LOOKOUT     2300            48     320/ 22/ 26 1018.9R
ONSLOW BAY 41036 2300            52 66  330/ 21/ 25 1019.5R
5 WRITEBCH 41038 2300            47 59  320/ 16/ 19 1020.2R
MASONBORO  41110 0000               59                N/A
WVE H/P(F/S)=  3/10 WND WVE H/P(F/S)=  3/10

WILM HARBR 41108 0000               61                N/A
WVE H/P(F/S)=  5/ 7 WND WVE H/P(F/S)=  5/ 7

27WRITEBCH 41037 2300            50 65  350/ 21/ 27 1020.4R
FRYING PAN 41013 0000            52 70  340/ 21/ 25 1021.1R
WVE H/P(F/S)=  7/ 6 WND WVE H/P(F/S)=  7/ 6 SWL H/P/D(F/S/D)=  2/350/14

SUNST NRSH 41024 2300            49     340/ 10/ 12 1019.6R
CAPRS NRSH 41029 2300            53     330/ 12/ 16   N/A
EDISTO     41004 0000            56 72  310/ 21/ 27 1021.6R
WVE H/P(F/S)=  6/ 6 WND WVE H/P(F/S)=  7/ 6 SWL H/P/D(F/S/D)=  2/ 9



..........OFFSHORE BUOYS BEYOND 100 NM OFFSHORE...........
.....IN A TRIANGLE---HAT TO BERMUDA TO BAHAMAS TO HAT.....


STATION/POSITION TIME  SKY/WX   TEMP    WIND        PRES    VSBY
                                AIR SEA DIR/SP/G
                 (UTC)          (F)     (DEG/KT/KT) (MB)    (MI)
150E HAT   41001 NOT AVBL
W BERMUDA  41048 NOT AVBL
ATLANTIC S 41049 NOT AVBL
E BAHAMAS  41046 NOT AVBL
NE BAHAMAS 41047 2242            72 78   10/ 14/ 17 1016.5R
WVE H/P(F/S)=  6/ 9 WND WVE H/P(F/S)=  3/ 5 SWL H/P/D(F/S/D)=  5/100/ 9

120E CANVRL41010 0000            65 78  320/ 19/ 25 1021.2R
WVE H/P(F/S)=  8/ 8 WND WVE H/P(F/S)=  8/ 8 SWL H/P/D(F/S/D)=  3/ 70/14


END


USA.gov is the U.S. government's official web portal to all federal, state and local government web resources and services.